Terminal Aerodrome Forecast
Issued by NWS Sterling, VA

Current Version | Previous Version | Graphics & Text | Print | Product List | Glossary On
Versions: 1 2 3 4 5 6 7 8 9 10 11 12 13 14 15 16 17 18 19 20 21 22 23 24 25 26
000
FTUS41 KLWX 201600 AAB
TAFIAD
TAF AMD
KIAD 201638Z 2017/2118 18012G18KT P6SM BKN200
     FM202300 17005KT P6SM BKN200
     FM211000 00000KT P6SM OVC060=

USA.gov is the U.S. government's official web portal to all federal, state and local government web resources and services.